Weather History for KTVL - June, 2013

Nearest airport to NA, NA.

See history from more local stations
Change the Weather History Date:

Saturday, June 8, 2013

  Actual Average Record
Temperature  
Mean Temperature 67 °F 53 °F  
Max Temperature 88 °F 70 °F 88 °F (2013)
Min Temperature 45 °F 36 °F 22 °F (1988)
Degree Days  
Heating Degree Days 0 12  
Month to date heating degree days 21 103  
Since 1 June heating degree days 21 103  
Since 1 July heating degree days 6884 7525  
Cooling Degree Days 2 0  
Month to date cooling degree days 3 0  
Year to date cooling degree days 3 0  
Since 1 June cooling degree days 3 0  
Growing Degree Days 16 (Base 50)    
Moisture  
Dew Point 41 °F    
Average Humidity 42    
Maximum Humidity 65    
Minimum Humidity 18    
Precipitation  
Precipitation 0.00 in - 0.40 in (1948)
Month to date precipitation 0.00  
Year to date precipitation 4.75  
Sea Level Pressure  
Sea Level Pressure 29.98 in    
Wind  
Wind Speed 2 mph (ENE)    
Max Wind Speed 12 mph    
Max Gust Speed 18 mph    
Visibility 10 miles    
Events      
T = Trace of Precipitation, MM = Missing Value Source: NWS Daily Summary

Daily Weather History Graph

Daily Weather History Graph

Search for Another Location

Airport or City:

Trip Planner

Search our weather history database for the weather conditions in past years. The results will help you decide how hot, cold, wet, or windy it might be!

Date:

Astronomy

Jun. 08, 2013 Rise Set
Actual Time 5:34 AM PDT 8:24 PM PDT
Civil Twilight 5:02 AM PDT 8:55 PM PDT
Nautical Twilight 4:22 AM PDT 9:35 PM PDT
Astronomical Twilight 3:37 AM PDT 10:21 PM PDT
Moon 5:45 AM PDT (6/8) 8:30 PM PDT (6/8)
Length of Visible Light 15h 53m
Length of Day
14h 49m
New Moon, 0% of the Moon is Illuminated
Jun 8
New Moon
Jun 16
First Quarter
Jun 23
Full
Jun 29
Last Quarter
Jul 8
New

Hourly Weather History & Observations

Time (PDT) Temp. Windchill Dew Point Humidity Pressure Visibility Wind Dir Wind Speed Gust Speed Precip Events Conditions
12:53 AM 52.0 °F - 37.0 °F 57% 30.00 in 10.0 mi Calm Calm - N/A   Clear
1:53 AM 51.1 °F - 37.0 °F 59% 29.99 in 10.0 mi SSW 3.5 mph - N/A   Clear
2:53 AM 48.9 °F - 35.1 °F 59% 30.01 in 10.0 mi Calm Calm - N/A   Clear
3:53 AM 48.0 °F - 36.0 °F 63% 29.99 in 10.0 mi Calm Calm - N/A   Clear
4:53 AM 46.0 °F 43.9 °F 36.0 °F 68% 30.00 in 10.0 mi SSE 4.6 mph - N/A   Clear
5:53 AM 46.0 °F - 35.1 °F 66% 30.01 in 10.0 mi Calm Calm - N/A   Clear
6:53 AM 50.0 °F - 37.0 °F 61% 30.01 in 10.0 mi Calm Calm - N/A   Clear
7:53 AM 62.1 °F - 44.1 °F 52% 30.01 in 10.0 mi ENE 4.6 mph - N/A   Clear
8:53 AM 69.1 °F - 44.1 °F 40% 30.00 in 10.0 mi Calm Calm - N/A   Clear
9:53 AM 75.9 °F - 43.0 °F 31% 29.99 in 10.0 mi NNE 6.9 mph - N/A   Clear
10:53 AM 78.1 °F - 39.9 °F 25% 29.99 in 10.0 mi NNE 6.9 mph - N/A   Clear
11:53 AM 82.0 °F - 41.0 °F 23% 29.98 in 10.0 mi Calm Calm - N/A   Clear
12:53 PM 82.9 °F - 39.9 °F 22% 29.98 in 10.0 mi Variable 4.6 mph - N/A   Clear
1:53 PM 84.9 °F - 39.0 °F 20% 29.97 in 10.0 mi Variable 4.6 mph - N/A   Clear
2:53 PM 86.0 °F - 37.9 °F 18% 29.96 in 10.0 mi Variable 4.6 mph - N/A   Clear
3:53 PM 86.0 °F - 42.1 °F 21% 29.96 in 10.0 mi NNE 10.4 mph - N/A   Clear
4:53 PM 87.1 °F - 39.0 °F 18% 29.94 in 10.0 mi NNE 5.8 mph - N/A   Clear
5:53 PM 75.9 °F - 44.1 °F 32% 29.97 in 10.0 mi Calm Calm - N/A   Clear
6:53 PM 75.9 °F - 50.0 °F 40% 29.97 in 10.0 mi Calm Calm - N/A   Clear
7:53 PM 73.0 °F - 46.0 °F 38% 29.95 in 10.0 mi Calm Calm - N/A   Clear
8:53 PM 69.1 °F - 51.1 °F 53% 29.95 in 10.0 mi Calm Calm - N/A   Clear
9:53 PM 64.9 °F - 48.0 °F 54% 29.96 in 10.0 mi South 4.6 mph - N/A   Clear
10:53 PM 63.0 °F - 46.9 °F 56% 29.96 in 10.0 mi Calm Calm - N/A   Clear
11:53 PM 61.0 °F - 46.0 °F 58% 29.95 in 10.0 mi Calm Calm - N/A   Clear